Location: Cantaing
(50.1487°N, 3.1675°E)
Time: 12:25:43
(UTC+00:00)

Cosmos 2082 Rocket - Pass Details

Date: 17 April 2026
Orbit: 831 x 853 km, 71.0° (Epoch: 19 May)

Event Time Altitude Azimuth Distance (km) Brightness Sun altitude
Exits shadow 00:31:13 18° 104° (ESE) 1,994 4.1 -28.7°
Maximum altitude 00:31:35 18° 99° (E) 1,989 4.1 -28.7°
Drops below altitude 10° 00:35:15 10° 59° (ENE) 2,490 5.2 -28.5°
Sets 00:38:28 0° 41° (NE) 3,432 6.3 -28.4°
